Theta_e
320 320 321 321 322 322 322 322 322 323 323 323 323 323 323 324 323 325 316 321 326 353 355 337 339 331 331 329 326 325 311 310 312 314 317 320 320 326 326 333 337 339 336 338 343
319 320 320 320 321 321 321 322 322 322 322 322 322 323 323 324 320 317 332 347 352 353 323 318 315 319 317 312 315 314 306 309 318 321 318 322 321 323 317 323 334 335 339 341 343
318 318 319 319 319 321 321 321 321 321 321 322 322 323 324 323 319 319 346 347 352 347 323 321 317 313 307 308 310 315 309 315 318 323 323 320 321 324 318 316 327 332 335 339 340
318 318 318 318 318 319 320 321 320 320 321 321 322 323 324 321 309 321 352 351 350 329 323 316 312 308 307 307 312 310 317 320 320 324 321 320 322 322 322 322 336 339 339 339 338
317 317 317 317 318 318 319 320 320 320 320 320 322 324 318 309 318 332 354 348 330 319 314 312 310 309 307 309 311 313 315 321 323 324 323 325 323 323 323 328 341 341 340 338 335
316 316 316 316 318 318 318 319 319 319 319 321 322 324 314 303 322 334 325 324 316 314 312 312 313 314 310 309 308 312 313 314 318 324 325 322 322 322 325 331 338 339 339 334 335
315 316 316 317 316 318 318 318 318 318 319 321 323 325 314 305 316 320 318 315 315 313 312 316 317 310 311 309 313 311 310 313 315 317 320 318 317 317 325 326 335 337 338 333 335
315 315 315 316 316 317 317 316 317 318 320 322 325 318 303 318 316 319 316 316 315 313 315 316 315 311 309 311 308 310 308 304 313 316 316 314 304 316 322 323 325 335 336 333 333
314 314 315 315 316 316 315 315 317 321 323 326 317 310 309 325 315 314 316 316 316 316 314 319 312 307 308 302 298 302 301 305 309 316 316 313 308 315 321 321 321 332 335 334 331
314 314 315 315 315 315 314 315 317 319 321 324 322 303 309 312 315 316 314 314 312 313 312 311 305 301 299 296 292 296 302 305 306 313 315 311 309 314 319 318 321 333 334 333 330
314 314 314 314 314 314 309 304 305 305 307 305 311 308 311 316 317 314 314 314 312 310 301 306 300 297 300 300 302 303 304 306 310 314 311 309 309 312 316 318 320 331 332 332 331
313 313 314 313 313 313 306 300 308 305 300 308 310 311 315 316 310 312 314 306 308 302 304 300 296 304 306 305 303 302 302 306 310 315 309 308 308 314 315 317 320 331 332 333 333
313 313 313 312 311 308 303 305 312 307 298 304 308 307 308 310 308 309 310 307 305 302 302 298 302 309 307 305 303 299 303 305 307 310 311 307 304 314 320 326 323 329 336 337 334
312 312 312 309 304 302 303 309 306 306 293 300 302 306 308 308 304 313 312 309 305 303 303 301 306 306 304 303 302 293 308 311 310 303 295 305 294 307 314 315 333 336 337 337 336
312 312 311 310 300 300 306 310 309 305 284 305 305 311 305 304 306 308 313 307 304 304 302 301 303 303 302 303 305 301 305 303 304 299 295 298 293 303 310 309 317 334 339 340 338
311 311 310 305 302 305 309 304 304 294 288 302 305 302 301 302 305 308 307 307 309 305 303 303 308 305 304 307 306 306 303 300 298 294 291 295 297 297 306 310 312 331 340 342 341
310 309 307 308 298 304 304 301 291 287 301 298 298 298 299 300 301 303 302 299 297 294 294 301 303 306 308 303 304 301 293 288 289 289 290 296 299 303 308 315 316 335 341 343 344
308 308 305 307 304 304 301 295 286 296 296 301 301 300 298 299 300 302 300 297 300 299 295 294 294 303 308 303 299 296 294 289 285 288 293 298 294 306 318 318 329 335 334 338 339
307 302 303 305 308 304 297 288 289 296 303 301 300 296 296 299 300 299 298 298 301 301 295 292 295 307 308 307 304 298 294 297 291 289 290 294 302 319 324 329 326 324 327 331 339
299 301 301 310 308 299 293 290 293 301 303 301 295 298 295 298 297 296 296 301 303 305 301 298 293 300 307 306 304 301 302 294 291 287 285 293 297 305 314 320 323 320 321 326 335
299 297 306 310 304 296 289 290 297 303 303 299 297 296 297 297 297 296 298 304 304 304 302 298 295 300 304 299 297 298 295 296 295 292 288 288 294 307 315 318 316 320 327 329 333
300 297 308 309 295 293 291 296 301 301 304 301 301 299 297 299 296 297 300 304 308 305 299 300 295 293 298 304 308 301 298 294 292 291 293 293 296 313 314 317 317 320 324 324 331
296 300 307 304 290 290 294 298 301 300 301 300 299 301 300 296 292 299 303 308 308 305 298 303 293 290 294 296 300 300 301 298 296 294 292 292 296 314 317 315 315 317 321 322 323
298 299 301 298 294 292 291 294 297 305 302 302 301 300 298 296 295 295 299 306 309 312 323 307 295 292 290 293 301 300 303 302 298 294 294 295 303 310 311 313 313 316 321 320 325
299 298 301 296 295 295 293 295 295 297 303 302 297 299 296 291 294 295 300 301 305 314 310 300 293 300 298 301 302 302 302 304 300 298 296 300 306 310 315 312 313 314 318 323 328
298 299 302 298 299 296 294 292 296 299 299 299 297 301 298 294 293 293 299 295 297 304 304 305 296 298 295 302 303 302 304 305 305 305 303 307 305 314 315 315 316 320 324 327 336
305 304 302 300 296 296 296 300 302 303 303 303 303 300 302 304 305 303 302 301 299 303 300 304 301 298 291 300 301 294 301 304 306 307 304 301 308 314 313 315 316 318 324 329 337
Wind_Speed
17 17 17 17 17 17 18 18 17 19 18 17 16 16 17 18 16 2 6 6 5 17 5 5 6 6 5 5 5 6 4 5 10 8 7 9 5 1 4 13 5 8 10 13 13
17 18 18 18 18 18 18 18 17 17 17 16 16 16 15 15 4 6 11 10 8 13 4 3 5 4 4 5 4 6 5 10 10 14 9 13 5 3 5 5 7 8 16 18 16
17 17 18 18 19 18 18 18 17 17 17 16 15 16 14 11 4 7 8 12 10 7 2 2 5 1 3 3 4 4 7 2 9 17 13 11 3 1 4 2 10 17 18 14 13
17 18 18 19 19 20 19 19 18 17 16 16 15 15 14 2 3 3 8 9 8 4 1 4 3 1 2 5 4 4 10 12 17 6 11 10 6 5 6 6 19 24 21 16 15
18 19 20 20 21 21 21 20 19 18 16 15 15 13 2 3 9 3 9 8 5 4 5 3 3 2 4 5 8 5 12 9 22 12 11 11 11 9 5 5 22 23 21 16 16
19 20 21 21 21 20 21 21 20 19 16 14 13 10 2 4 6 9 9 7 4 4 4 6 7 5 6 4 2 4 11 13 6 12 9 6 5 4 6 6 23 23 21 18 20
19 20 21 22 22 22 22 22 22 21 17 13 12 4 2 15 3 4 10 8 7 8 6 6 6 3 3 7 5 7 7 7 4 3 6 5 2 7 1 9 21 19 18 17 14
20 21 21 22 23 23 24 24 26 22 16 12 7 2 8 7 2 7 6 8 6 7 7 10 6 3 2 3 10 7 4 6 7 6 8 8 6 13 5 10 11 20 18 21 16
20 21 21 22 23 24 24 28 27 18 7 3 2 2 11 12 3 9 9 10 4 5 7 7 3 2 7 4 7 7 3 6 8 7 2 6 9 7 8 10 11 16 15 17 12
20 21 21 22 22 23 27 28 14 7 2 5 3 3 5 4 6 6 5 7 5 4 5 4 6 3 4 5 6 6 2 7 8 6 7 7 9 12 10 11 14 17 17 16 15
20 21 22 23 24 20 16 8 6 5 2 6 4 5 12 5 5 4 5 1 4 2 1 4 3 7 13 10 10 6 5 9 7 3 1 8 4 13 3 6 10 14 14 13 14
21 22 23 25 24 23 2 2 6 4 9 10 14 13 19 7 10 10 4 2 3 6 4 6 6 13 6 8 9 7 8 11 5 9 4 10 10 5 9 9 12 17 16 15 11
21 22 23 26 29 3 3 7 10 6 2 9 8 8 10 10 10 13 9 5 6 4 6 7 14 4 6 10 8 5 10 7 10 4 7 4 6 6 6 4 11 9 13 13 14
21 21 21 30 3 6 6 7 9 3 5 10 6 11 7 7 9 8 10 10 4 11 7 7 11 12 9 8 7 3 9 6 8 0 5 4 5 5 6 8 6 12 15 14 13
21 21 20 11 5 4 6 14 10 7 3 7 7 4 5 13 3 3 9 5 9 9 6 13 4 7 3 7 3 8 6 3 3 2 3 3 6 7 5 5 5 9 12 12 12
21 19 19 2 2 10 12 14 6 7 7 7 2 5 6 5 6 4 4 4 5 8 3 9 4 4 7 4 3 4 3 8 6 4 4 4 5 6 7 11 4 4 11 13 12
22 19 11 4 7 4 8 5 6 4 5 6 4 1 8 9 5 6 5 3 7 3 5 7 9 6 5 4 6 7 8 5 6 7 7 1 2 9 7 6 6 11 12 11 8
24 27 6 8 6 4 5 7 4 6 9 5 6 6 5 4 7 7 4 6 5 4 3 3 10 3 4 6 7 4 9 8 5 4 6 5 4 6 9 9 14 21 17 12 7
25 2 4 7 11 4 6 3 9 7 3 8 10 2 4 3 5 6 10 9 9 10 10 6 10 3 6 5 10 7 3 8 7 1 4 3 2 4 8 17 21 24 3 6 7
4 5 6 4 10 6 6 5 5 6 6 6 2 3 7 7 6 4 1 6 9 12 7 8 5 6 10 2 4 11 6 1 4 2 5 5 4 7 2 13 14 9 8 1 3
1 4 5 10 5 6 4 7 6 13 5 3 7 3 2 2 1 2 4 6 4 10 11 8 6 19 3 2 6 1 2 4 6 6 6 2 5 2 11 15 12 9 9 10 8
4 2 2 7 4 2 4 6 4 11 6 7 6 7 3 1 3 2 2 4 9 7 9 10 8 8 14 2 5 6 7 6 7 9 3 6 5 5 4 9 12 11 16 14 6
4 5 3 7 3 3 5 5 6 12 10 5 5 5 2 1 2 3 4 7 13 10 2 1 1 2 10 8 6 2 3 5 4 4 4 7 6 2 7 6 11 13 8 5 4
2 3 5 4 1 4 2 7 5 6 14 7 6 2 7 7 1 4 5 4 11 7 9 6 3 6 8 7 2 4 6 3 7 4 3 5 6 7 11 15 14 10 11 9 5
2 5 4 3 6 7 6 5 6 6 3 6 3 1 3 2 7 5 5 9 9 9 9 5 1 2 5 4 4 1 4 9 3 5 6 13 17 20 22 20 19 19 8 6 9
1 1 5 4 4 2 8 6 6 5 3 7 4 5 1 1 1 5 3 1 3 8 7 7 3 3 4 6 5 2 5 7 6 5 5 12 6 17 16 2 6 10 12 12 11
4 4 3 5 6 5 2 8 5 3 1 3 5 3 6 2 2 3 4 4 5 1 4 3 3 5 6 4 6 5 3 1 4 4 2 5 7 19 11 13 13 15 15 13 12
Wind_Direction
355 350 346 343 339 335 333 331 331 328 330 329 331 325 326 327 315 260 264 217 183 169 174 142 212 207 190 245 223 127 86 219 181 176 234 257 276 313 80 134 220 186 159 128 109
352 348 344 341 338 333 329 327 325 321 322 327 328 325 327 332 324 259 242 151 133 150 183 203 267 179 237 227 214 143 158 217 201 176 207 222 197 109 78 54 39 72 86 118 117
348 345 340 338 334 328 324 322 319 319 320 325 328 323 323 320 313 253 208 158 145 163 301 309 273 252 272 347 274 220 236 231 185 204 180 203 190 351 126 159 146 136 128 130 128
347 342 338 334 331 328 326 320 316 315 319 323 325 317 315 260 289 285 119 121 138 157 306 305 296 255 266 306 267 292 272 273 282 197 177 192 95 208 163 213 146 143 141 141 111
344 341 335 332 328 327 322 317 316 315 316 318 315 319 308 345 252 177 131 121 135 152 210 206 270 213 245 264 321 236 281 281 273 187 191 107 203 194 191 172 144 142 142 130 130
342 339 333 330 327 322 319 315 312 309 307 309 305 316 301 284 262 142 144 146 195 195 218 189 231 238 275 296 305 256 306 282 128 180 163 161 245 143 175 142 147 148 145 140 149
341 337 332 327 326 322 318 314 308 302 301 299 294 278 277 235 277 156 165 201 184 192 212 214 233 192 261 334 301 319 319 348 0 152 145 148 104 247 224 174 146 149 144 140 162
338 335 331 328 325 321 317 311 302 299 299 283 251 235 249 260 263 211 180 294 218 227 213 247 206 238 1 297 6 341 23 19 288 10 159 80 243 235 208 184 144 154 140 168 177
335 334 331 327 324 321 317 306 299 298 263 175 174 138 270 306 256 222 169 223 280 290 241 267 129 138 3 33 5 354 280 307 299 179 181 123 290 245 190 170 143 152 162 147 170
333 333 330 326 324 323 318 298 292 320 139 195 271 13 282 255 257 214 231 240 245 289 12 354 47 75 18 76 232 234 294 288 282 296 30 327 265 284 214 163 155 158 159 164 170
334 332 330 326 322 326 338 348 11 0 37 209 205 255 290 281 301 213 185 190 237 48 324 321 96 227 235 209 224 194 228 252 270 323 26 257 243 302 135 152 131 156 153 160 168
334 333 330 326 320 320 269 329 232 219 302 246 251 243 258 281 289 277 94 146 124 217 298 356 253 245 252 250 249 209 226 252 301 265 181 280 298 342 128 208 174 146 154 161 162
333 333 331 325 316 320 234 250 295 18 306 286 227 216 223 150 227 244 136 196 189 226 236 188 249 285 234 266 256 228 201 223 218 345 288 29 345 58 329 325 126 146 160 157 173
331 332 335 330 5 328 276 311 327 191 44 278 242 257 183 155 287 210 184 164 208 213 236 228 262 246 261 253 177 239 200 216 262 326 235 120 254 322 332 334 85 141 157 160 163
329 330 335 326 300 300 291 331 320 55 8 250 236 201 170 159 208 296 182 131 208 231 120 252 270 296 292 238 179 229 278 264 294 278 28 355 84 261 37 297 187 184 166 155 161
324 326 335 73 232 247 317 311 43 51 248 290 212 179 107 206 242 280 145 143 183 213 240 237 260 203 233 265 210 256 47 34 40 68 13 238 115 261 205 192 215 180 151 151 159
319 312 308 283 240 340 325 34 54 163 295 260 279 184 191 195 236 192 227 192 177 153 308 318 285 285 224 290 341 80 56 353 354 7 231 239 137 237 207 172 191 161 138 130 153
318 311 238 207 233 321 21 57 169 223 257 339 22 320 196 218 245 212 159 235 257 120 137 173 316 246 289 200 197 223 146 156 215 194 259 338 289 305 318 77 55 59 30 27 86
319 311 254 244 206 109 75 119 198 221 262 356 342 282 311 244 206 192 190 201 210 174 174 163 259 241 220 247 164 240 170 192 128 84 58 270 55 351 47 90 76 75 348 285 164
311 323 258 148 138 90 81 228 227 240 13 21 305 29 32 327 53 28 340 232 218 194 165 218 280 221 272 275 261 161 171 136 12 208 250 292 167 198 6 95 108 130 195 208 296
49 342 257 126 99 55 166 231 275 276 335 304 307 292 288 39 1 350 267 311 289 250 174 162 139 270 170 169 230 295 227 80 123 139 168 187 288 240 182 157 146 170 178 186 191
333 341 305 118 83 182 200 204 238 273 315 276 260 191 216 92 323 326 324 246 352 305 172 199 167 236 241 265 205 171 223 140 125 267 157 142 260 289 208 157 157 189 197 197 165
328 268 313 103 163 243 284 270 237 270 267 278 281 24 4 355 359 292 326 314 2 350 18 156 187 193 311 345 353 25 79 145 135 66 191 128 241 294 189 186 198 203 222 242 290
-0 334 318 40 134 169 314 271 253 270 244 236 237 28 44 1 60 285 339 341 10 354 342 74 91 156 192 203 212 331 319 106 114 93 190 173 171 227 208 190 223 234 214 198 235
152 255 208 286 292 243 175 286 309 313 272 172 36 165 136 323 349 344 6 343 357 343 5 79 174 227 216 186 131 225 6 342 189 197 156 176 161 200 200 208 203 207 202 202 238
191 350 344 268 279 256 157 245 238 279 59 325 160 242 244 116 202 296 46 94 276 338 360 346 341 337 305 343 34 37 354 320 312 170 212 161 153 200 198 187 238 216 210 214 185
300 320 118 288 337 21 333 319 275 315 249 107 60 76 43 109 188 227 209 254 228 297 312 48 29 33 290 346 1 1 194 159 285 260 157 172 203 166 182 202 217 227 218 193 169